TimeAWST,TemperatureF,Dew PointF,Humidity,Sea Level PressureIn,VisibilityMPH,Wind Direction,Wind SpeedMPH,Gust SpeedMPH,PrecipitationIn,Events,Conditions,WindDirDegrees,DateUTC
12:00 AM,69.8,64.4,83,29.89,6.2,Calm,Calm,-,N/A,,Unknown,0,2013-09-09 16:00:00
12:30 AM,69.8,64.4,83,29.89,6.2,Calm,Calm,-,N/A,,Unknown,0,2013-09-09 16:30:00
1:00 AM,68.0,62.6,83,29.86,6.2,North,2.3,-,N/A,,Unknown,360,2013-09-09 17:00:00
1:30 AM,68.0,62.6,83,29.86,6.2,NE,3.5,-,N/A,,Unknown,40,2013-09-09 17:30:00
2:00 AM,68,63,79,29.86,,North,4.6,,,,,0,2013-09-09 18:00:00
2:00 AM,68.0,62.6,83,29.86,6.2,North,4.6,-,N/A,,Scattered Clouds,360,2013-09-09 18:00:00
2:30 AM,69.8,64.4,83,29.86,6.2,NNE,4.6,-,N/A,,Mostly Cloudy,30,2013-09-09 18:30:00
3:00 AM,68,63,80,29.86,,North,3.5,,,,,0,2013-09-09 19:00:00
3:00 AM,68.0,62.6,83,29.86,6.2,North,3.5,-,N/A,,Unknown,360,2013-09-09 19:00:00
3:30 AM,68.0,64.4,88,29.86,6.2,North,4.6,-,N/A,,Unknown,350,2013-09-09 19:30:00
4:00 AM,68.0,64.4,88,29.86,6.2,NNE,6.9,-,N/A,,Unknown,20,2013-09-09 20:00:00
4:30 AM,69.8,66.2,88,29.86,6.2,North,8.1,-,N/A,,Unknown,360,2013-09-09 20:30:00
5:00 AM,67,65,92,29.88,,North,6.9,,,,,350,2013-09-09 21:00:00
5:00 AM,68.0,66.2,94,29.89,6.2,North,6.9,-,N/A,,Unknown,350,2013-09-09 21:00:00
5:30 AM,66.2,64.4,94,29.89,6.2,North,4.6,-,N/A,,Unknown,350,2013-09-09 21:30:00
6:00 AM,68,66,91,29.90,6,Calm,Calm,,,,Partly Cloudy,,2013-09-09 22:00:00
6:00 AM,68.0,66.2,94,29.89,6.2,Calm,Calm,-,N/A,,Unknown,0,2013-09-09 22:00:00
6:30 AM,69.8,68.0,94,29.89,6.2,West,3.5,-,N/A,,Unknown,270,2013-09-09 22:30:00
7:00 AM,75.2,68.0,78,29.92,6.2,NNE,4.6,-,N/A,,Unknown,20,2013-09-09 23:00:00
7:30 AM,78.8,66.2,65,29.92,6.2,North,5.8,-,N/A,,Unknown,360,2013-09-09 23:30:00
8:00 AM,82,64,45,29.93,,NNW,5.8,,,,,330,2013-09-10 00:00:00
8:00 AM,82.4,64.4,54,29.92,6.2,NNW,5.8,-,N/A,,Unknown,330,2013-09-10 00:00:00
8:30 AM,84.2,64.4,51,29.92,6.2,North,4.6,-,N/A,,Unknown,10,2013-09-10 00:30:00
9:00 AM,87,61,31,29.92,12,NW,5.8,,,,Partly Cloudy,310,2013-09-10 01:00:00
9:00 AM,87.8,60.8,40,29.92,6.2,NW,5.8,-,N/A,,Unknown,310,2013-09-10 01:00:00
9:30 AM,87.8,60.8,40,29.92,6.2,SE,4.6,-,N/A,,Unknown,130,2013-09-10 01:30:00
10:00 AM,91.4,55.4,29,29.89,6.2,West,5.8,-,N/A,,Unknown,280,2013-09-10 02:00:00
10:30 AM,93.2,55.4,28,29.89,6.2,SE,4.6,-,N/A,,Unknown,140,2013-09-10 02:30:00
11:00 AM,96.8,53.6,23,29.86,6.2,NE,15.0,-,N/A,,Unknown,40,2013-09-10 03:00:00
11:30 AM,95.0,55.4,26,29.86,6.2,NE,8.1,-,N/A,,Unknown,50,2013-09-10 03:30:00
12:00 PM,94,51,14,29.83,,North,8.1,,,,,10,2013-09-10 04:00:00
12:00 PM,95.0,50.0,22,29.83,6.2,North,8.1,-,N/A,,Unknown,10,2013-09-10 04:00:00
12:30 PM,96.8,51.8,22,29.80,6.2,West,5.8,-,N/A,,Unknown,280,2013-09-10 04:30:00
1:00 PM,96.8,48.2,19,29.80,6.2,ENE,9.2,-,N/A,,Scattered Clouds,60,2013-09-10 05:00:00
1:30 PM,96.8,50.0,20,29.77,6.2,NNW,4.6,-,N/A,,Unknown,330,2013-09-10 05:30:00
2:00 PM,97,46,10,29.77,,NE,6.9,,,,,40,2013-09-10 06:00:00
2:00 PM,96.8,46.4,18,29.77,6.2,NE,6.9,-,N/A,,Unknown,40,2013-09-10 06:00:00
2:30 PM,98.6,46.4,17,29.77,6.2,North,8.1,-,N/A,,Unknown,360,2013-09-10 06:30:00
3:00 PM,97,47,11,29.76,12,NNE,6.9,,,,Partly Cloudy,20,2013-09-10 07:00:00
3:00 PM,96.8,48.2,19,29.77,6.2,NNE,6.9,-,N/A,,Scattered Clouds,20,2013-09-10 07:00:00
3:30 PM,95.0,48.2,20,29.77,6.2,North,4.6,-,N/A,,Unknown,350,2013-09-10 07:30:00
4:00 PM,96.8,48.2,19,29.77,6.2,WNW,4.6,-,N/A,,Unknown,300,2013-09-10 08:00:00
4:30 PM,93.2,59.0,32,29.77,6.2,North,12.7,-,N/A,,Scattered Clouds,360,2013-09-10 08:30:00
5:00 PM,90,61,28,29.78,,North,10.4,,,,,10,2013-09-10 09:00:00
5:00 PM,89.6,60.8,38,29.77,6.2,North,10.4,-,N/A,,Scattered Clouds,10,2013-09-10 09:00:00
5:30 PM,87.8,60.8,40,29.80,6.2,North,10.4,-,N/A,,Unknown,10,2013-09-10 09:30:00
6:00 PM,85,62,36,29.81,,North,8.1,,,,,0,2013-09-10 10:00:00
6:00 PM,86.0,62.6,45,29.80,6.2,North,8.1,-,N/A,,Unknown,360,2013-09-10 10:00:00
6:30 PM,84.2,60.8,45,29.80,6.2,North,8.1,-,N/A,,Unknown,360,2013-09-10 10:30:00
7:00 PM,82.4,60.8,48,29.83,6.2,North,9.2,-,N/A,,Unknown,360,2013-09-10 11:00:00
7:30 PM,80.6,60.8,51,29.83,6.2,North,9.2,-,N/A,,Unknown,360,2013-09-10 11:30:00
8:00 PM,79,61,44,29.85,,North,6.9,,,,,0,2013-09-10 12:00:00
8:00 PM,78.8,60.8,54,29.86,6.2,North,6.9,-,N/A,,Unknown,360,2013-09-10 12:00:00
8:30 PM,78.8,62.6,57,29.86,6.2,North,8.1,-,N/A,,Unknown,10,2013-09-10 12:30:00
9:00 PM,77,61,47,29.86,,North,8.1,,,,,10,2013-09-10 13:00:00
9:00 PM,77.0,60.8,57,29.86,6.2,North,8.1,-,N/A,,Unknown,10,2013-09-10 13:00:00
9:30 PM,75.2,60.8,61,29.86,6.2,North,8.1,-,N/A,,Unknown,350,2013-09-10 13:30:00
10:00 PM,73.4,60.8,65,29.86,6.2,WNW,3.5,-,N/A,,Unknown,290,2013-09-10 14:00:00
10:30 PM,73.4,60.8,65,29.86,6.2,NNW,4.6,-,N/A,,Unknown,330,2013-09-10 14:30:00
11:00 PM,71,60,60,29.85,,North,4.6,,,,,350,2013-09-10 15:00:00
11:00 PM,71.6,60.8,69,29.86,6.2,North,4.6,-,N/A,,Unknown,350,2013-09-10 15:00:00
11:30 PM,71.6,60.8,69,29.83,6.2,NNE,5.8,-,N/A,,Unknown,20,2013-09-10 15:30:00